COSMOS 2434 (721)

Last updated on July 6, 2021, 3:39 p.m. UTC

1 32393U 07065A   21186.79419729  .00000032  00000-0  00000-0 0  9999
2 32393  64.4559 253.2794 0002118 118.8639 124.7387  2.13103081105282
UTC
Height (km)
Latitude
Longitude
Inclination
Orbital Period
UTC large
Height (km)
Speed (km/s)
/
Latitude / Longitude
Inclination (degrees)
Orbital Period (minutes)
Azimuth
Elevation
Range (km)
Doppler Factor
iOS Compass Heading
iOS Angle